Wetterdaten: Sonntag, 21.12.2014
Datum Zeit Temp. A. Mod.Schuppen Waschkche Feuchte A. Luftdruck Regen Wind Richtung Richtung Sonnenschein Helligkeit Solar
21.12.2014 00:00 4,3 C 2,2 C 7,8 C 85 % 1027,2 hPa 0,0 l/m 21,6 km/h (4 Bft) W22.5 270 0 min 0 lux 0 W/m
21.12.2014 00:05 4,3 C 2,1 C 7,8 C 85 % 1027,2 hPa 0,0 l/m 23,0 km/h (4 Bft) W45 260 0 min 0 lux 0 W/m
21.12.2014 00:10 4,3 C 2,1 C 7,8 C 85 % 1027,2 hPa 0,0 l/m 20,1 km/h (4 Bft) W22.5 270 0 min 0 lux 0 W/m
21.12.2014 00:15 4,4 C 2,2 C 7,8 C 85 % 1027,2 hPa 0,0 l/m 21,6 km/h (4 Bft) W22.5 270 0 min 0 lux 0 W/m
21.12.2014 00:20 4,4 C 2,3 C 7,8 C 85 % 1027,2 hPa 0,0 l/m 21,3 km/h (4 Bft) W22.5 270 0 min 0 lux 0 W/m
21.12.2014 00:25 4,4 C 2,4 C 7,8 C 85 % 1027,2 hPa 0,0 l/m 22,9 km/h (4 Bft) W22.5 265 0 min 0 lux 0 W/m
21.12.2014 00:30 4,5 C 2,3 C 7,8 C 85 % 1027,2 hPa 0,0 l/m 22,9 km/h (4 Bft) W-SW22.5 250 0 min 0 lux 0 W/m
21.12.2014 00:35 4,5 C 2,3 C 7,7 C 85 % 1027,2 hPa 0,0 l/m 20,6 km/h (4 Bft) W-SW22.5 250 0 min 0 lux 0 W/m
21.12.2014 00:40 4,5 C 2,3 C 7,7 C 85 % 1027,2 hPa 0,0 l/m 19,8 km/h (3 Bft) W-SW22.5 245 0 min 0 lux 0 W/m
21.12.2014 00:45 4,4 C 2,6 C 7,8 C 85 % 1027,2 hPa 0,0 l/m 21,6 km/h (4 Bft) W-SW22.5 240 0 min 0 lux 0 W/m
21.12.2014 00:50 4,4 C 2,5 C 7,7 C 86 % 1027,2 hPa 0,0 l/m 21,9 km/h (4 Bft) W-SW22.5 250 0 min 0 lux 0 W/m
21.12.2014 00:55 4,4 C 2,4 C 7,7 C 86 % 1027,2 hPa 0,0 l/m 21,2 km/h (4 Bft) W-SW22.5 250 0 min 0 lux 0 W/m
21.12.2014 01:00 4,4 C 2,4 C 7,7 C 86 % 1027,2 hPa 0,0 l/m 19,3 km/h (3 Bft) W-SW22.5 255 0 min 0 lux 0 W/m
21.12.2014 01:05 4,4 C 2,3 C 7,7 C 86 % 1027,2 hPa 0,0 l/m 22,0 km/h (4 Bft) W-SW22.5 250 0 min 0 lux 0 W/m
21.12.2014 01:10 4,4 C 2,3 C 7,7 C 86 % 1027,2 hPa 0,0 l/m 24,1 km/h (4 Bft) W-SW22.5 255 0 min 0 lux 0 W/m
21.12.2014 01:15 4,4 C 2,3 C 7,7 C 86 % 1027,2 hPa 0,0 l/m 20,6 km/h (4 Bft) W-SW22.5 250 0 min 0 lux 0 W/m
21.12.2014 01:20 4,4 C 2,4 C 7,7 C 86 % 1027,2 hPa 0,0 l/m 26,1 km/h (4 Bft) W22.5 260 0 min 0 lux 0 W/m
21.12.2014 01:25 4,4 C 2,6 C 7,7 C 86 % 1027,2 hPa 0,0 l/m 26,3 km/h (4 Bft) W-SW45 255 0 min 0 lux 0 W/m
21.12.2014 01:30 4,4 C 2,6 C 7,7 C 86 % 1027,2 hPa 0,0 l/m 26,2 km/h (4 Bft) W22.5 260 0 min 0 lux 0 W/m
21.12.2014 01:35 4,7 C 2,7 C 7,7 C 86 % 1027,2 hPa 0,0 l/m 30,8 km/h (5 Bft) W22.5 265 0 min 0 lux 0 W/m
21.12.2014 01:40 4,7 C 2,7 C 7,7 C 86 % 1027,2 hPa 0,0 l/m 28,8 km/h (5 Bft) W22.5 260 0 min 0 lux 0 W/m
21.12.2014 01:45 4,7 C 2,6 C 7,7 C 86 % 1027,2 hPa 0,0 l/m 24,3 km/h (4 Bft) W22.5 260 0 min 0 lux 0 W/m
21.12.2014 01:50 4,7 C 2,6 C 7,7 C 86 % 1027,2 hPa 0,0 l/m 24,8 km/h (4 Bft) W-SW22.5 255 0 min 0 lux 0 W/m
21.12.2014 01:55 4,7 C 2,7 C 7,6 C 86 % 1027,2 hPa 0,0 l/m 23,8 km/h (4 Bft) W45 260 0 min 0 lux 0 W/m
21.12.2014 02:00 4,7 C 2,6 C 7,6 C 86 % 1028,2 hPa 0,0 l/m 22,4 km/h (4 Bft) W-SW22.5 250 0 min 0 lux 0 W/m
21.12.2014 02:05 4,7 C 2,3 C 7,6 C 86 % 1028,2 hPa 0,0 l/m 19,5 km/h (3 Bft) W22.5 265 0 min 0 lux 0 W/m
21.12.2014 02:10 4,7 C 2,4 C 7,6 C 86 % 1028,2 hPa 0,0 l/m 22,1 km/h (4 Bft) W22.5 260 0 min 0 lux 0 W/m
21.12.2014 02:15 4,7 C 2,5 C 7,6 C 86 % 1028,2 hPa 0,0 l/m 24,5 km/h (4 Bft) W22.5 270 0 min 0 lux 0 W/m
21.12.2014 02:20 4,5 C 2,5 C 7,6 C 85 % 1028,2 hPa 0,0 l/m 20,2 km/h (4 Bft) W22.5 265 0 min 0 lux 0 W/m
21.12.2014 02:25 4,5 C 2,6 C 7,6 C 85 % 1028,2 hPa 0,0 l/m 22,5 km/h (4 Bft) W22.5 265 0 min 0 lux 0 W/m
21.12.2014 02:30 4,5 C 2,6 C 7,6 C 85 % 1028,2 hPa 0,0 l/m 16,7 km/h (3 Bft) W22.5 265 0 min 0 lux 0 W/m
21.12.2014 02:35 4,5 C 2,6 C 7,6 C 85 % 1028,2 hPa 0,0 l/m 16,5 km/h (3 Bft) W-SW22.5 255 0 min 0 lux 0 W/m
21.12.2014 02:40 4,5 C 3,0 C 7,6 C 85 % 1028,2 hPa 0,0 l/m 19,6 km/h (3 Bft) W-SW22.5 255 0 min 0 lux 0 W/m
21.12.2014 02:45 4,5 C 3,1 C 7,6 C 86 % 1028,2 hPa 0,0 l/m 18,4 km/h (3 Bft) W-SW22.5 255 0 min 0 lux 0 W/m
21.12.2014 02:50 4,6 C 3,2 C 7,6 C 86 % 1028,2 hPa 0,0 l/m 20,5 km/h (4 Bft) W-SW22.5 255 0 min 0 lux 0 W/m
21.12.2014 02:55 4,6 C 3,2 C 7,6 C 86 % 1028,2 hPa 0,0 l/m 22,8 km/h (4 Bft) W-SW45 250 0 min 0 lux 0 W/m
21.12.2014 03:00 4,6 C 3,3 C 7,6 C 86 % 1029,2 hPa 0,0 l/m 20,6 km/h (4 Bft) W-SW45 245 0 min 0 lux 0 W/m
21.12.2014 03:05 4,6 C 3,3 C 7,6 C 86 % 1028,2 hPa 0,0 l/m 20,7 km/h (4 Bft) W-SW22.5 245 0 min 0 lux 0 W/m
21.12.2014 03:10 4,5 C 3,4 C 7,6 C 87 % 1028,2 hPa 0,0 l/m 20,0 km/h (4 Bft) W-SW45 245 0 min 0 lux 0 W/m
21.12.2014 03:15 4,7 C 3,7 C 7,6 C 86 % 1029,2 hPa 0,0 l/m 22,4 km/h (4 Bft) W-SW22.5 250 0 min 0 lux 0 W/m
21.12.2014 03:20 4,8 C 3,8 C 7,6 C 86 % 1029,2 hPa 0,0 l/m 20,0 km/h (4 Bft) W-SW22.5 250 0 min 0 lux 0 W/m
21.12.2014 03:25 4,8 C 3,7 C 7,6 C 86 % 1029,2 hPa 0,0 l/m 20,6 km/h (4 Bft) W-SW45 240 0 min 0 lux 0 W/m
21.12.2014 03:30 4,8 C 3,8 C 7,6 C 86 % 1029,2 hPa 0,0 l/m 23,8 km/h (4 Bft) W-SW22.5 240 0 min 0 lux 0 W/m
21.12.2014 03:35 4,7 C 3,8 C 7,6 C 86 % 1029,2 hPa 0,0 l/m 18,1 km/h (3 Bft) W-SW22.5 240 0 min 0 lux 0 W/m
21.12.2014 03:40 4,7 C 3,8 C 7,6 C 87 % 1029,2 hPa 0,0 l/m 22,2 km/h (4 Bft) W-SW22.5 240 0 min 0 lux 0 W/m
21.12.2014 03:45 4,8 C 3,8 C 7,5 C 86 % 1029,2 hPa 0,0 l/m 20,0 km/h (4 Bft) W-SW22.5 245 0 min 0 lux 0 W/m
21.12.2014 03:50 4,7 C 3,8 C 7,6 C 87 % 1029,2 hPa 0,0 l/m 17,6 km/h (3 Bft) W-SW45 240 0 min 0 lux 0 W/m
21.12.2014 03:55 4,7 C 3,5 C 7,6 C 87 % 1029,2 hPa 0,0 l/m 20,0 km/h (4 Bft) W-SW22.5 245 0 min 0 lux 0 W/m
21.12.2014 04:00 4,6 C 3,4 C 7,6 C 87 % 1029,2 hPa 0,0 l/m 20,3 km/h (4 Bft) W-SW22.5 245 0 min 0 lux 0 W/m
21.12.2014 04:05 4,6 C 3,4 C 7,6 C 88 % 1029,2 hPa 0,0 l/m 21,8 km/h (4 Bft) SW45 235 0 min 0 lux 0 W/m
21.12.2014 04:10 4,7 C 3,3 C 7,5 C 88 % 1029,2 hPa 0,0 l/m 23,1 km/h (4 Bft) W-SW22.5 245 0 min 0 lux 0 W/m
21.12.2014 04:15 4,7 C 3,3 C 7,5 C 88 % 1029,2 hPa 0,0 l/m 25,7 km/h (4 Bft) W-SW45 240 0 min 0 lux 0 W/m
21.12.2014 04:20 4,7 C 3,4 C 7,5 C 88 % 1029,2 hPa 0,0 l/m 22,3 km/h (4 Bft) W-SW45 245 0 min 0 lux 0 W/m
21.12.2014 04:25 4,7 C 3,5 C 7,5 C 88 % 1029,2 hPa 0,0 l/m 20,3 km/h (4 Bft) W-SW22.5 240 0 min 0 lux 0 W/m
21.12.2014 04:30 4,5 C 3,5 C 7,5 C 88 % 1029,2 hPa 0,0 l/m 23,2 km/h (4 Bft) W-SW22.5 245 0 min 0 lux 0 W/m
21.12.2014 04:35 4,7 C 3,5 C 7,5 C 89 % 1029,2 hPa 0,0 l/m 24,7 km/h (4 Bft) W-SW22.5 250 0 min 0 lux 0 W/m
21.12.2014 04:40 4,7 C 3,5 C 7,5 C 88 % 1028,2 hPa 0,0 l/m 27,1 km/h (5 Bft) W-SW22.5 250 0 min 0 lux 0 W/m
21.12.2014 04:45 4,7 C 3,7 C 7,5 C 88 % 1028,2 hPa 0,0 l/m 22,6 km/h (4 Bft) W-SW22.5 250 0 min 0 lux 0 W/m
21.12.2014 04:50 4,8 C 3,8 C 7,5 C 88 % 1029,2 hPa 0,0 l/m 29,2 km/h (5 Bft) W-SW22.5 240 0 min 0 lux 0 W/m
21.12.2014 04:55 4,8 C 3,8 C 7,5 C 88 % 1029,2 hPa 0,0 l/m 27,5 km/h (5 Bft) W-SW22.5 250 0 min 0 lux 0 W/m
21.12.2014 05:00 4,8 C 3,9 C 7,5 C 88 % 1029,2 hPa 0,0 l/m 32,4 km/h (5 Bft) W-SW45 250 0 min 0 lux 0 W/m
21.12.2014 05:05 4,8 C 3,8 C 7,5 C 88 % 1029,2 hPa 0,0 l/m 25,6 km/h (4 Bft) W-SW45 240 0 min 0 lux 0 W/m
21.12.2014 05:10 4,7 C 3,6 C 7,5 C 88 % 1029,2 hPa 0,0 l/m 26,5 km/h (4 Bft) W-SW22.5 250 0 min 0 lux 0 W/m
21.12.2014 05:15 4,7 C 3,5 C 7,5 C 88 % 1029,2 hPa 0,0 l/m 24,9 km/h (4 Bft) W-SW22.5 250 0 min 0 lux 0 W/m
21.12.2014 05:20 4,7 C 3,4 C 7,5 C 88 % 1029,2 hPa 0,0 l/m 24,8 km/h (4 Bft) W-SW22.5 240 0 min 0 lux 0 W/m
21.12.2014 05:25 4,7 C 3,3 C 7,5 C 88 % 1029,2 hPa 0,0 l/m 25,1 km/h (4 Bft) W-SW45 240 0 min 0 lux 0 W/m
21.12.2014 05:30 4,6 C 3,3 C 7,5 C 88 % 1029,2 hPa 0,0 l/m 24,6 km/h (4 Bft) W-SW45 240 0 min 0 lux 0 W/m
21.12.2014 05:30 4,6 C 3,3 C 7,5 C 88 % 1029,2 hPa 0,0 l/m 24,6 km/h (4 Bft) W-SW45 240 0 min 0 lux 0 W/m
21.12.2014 05:35 4,5 C 3,2 C 7,5 C 88 % 1029,2 hPa 0,0 l/m 24,7 km/h (4 Bft) W-SW22.5 240 0 min 0 lux 0 W/m
21.12.2014 05:40 4,4 C 3,1 C 7,4 C 88 % 1029,2 hPa 0,0 l/m 20,1 km/h (4 Bft) SW22.5 235 0 min 0 lux 0 W/m
21.12.2014 05:45 4,4 C 3,0 C 7,5 C 88 % 1029,2 hPa 0,0 l/m 19,8 km/h (3 Bft) W-SW22.5 240 0 min 0 lux 0 W/m
21.12.2014 05:50 4,4 C 2,7 C 7,5 C 88 % 1029,2 hPa 0,0 l/m 19,7 km/h (3 Bft) SW45 230 0 min 0 lux 0 W/m
21.12.2014 05:55 4,4 C 2,6 C 7,4 C 88 % 1029,2 hPa 0,0 l/m 19,8 km/h (3 Bft) SW22.5 225 0 min 0 lux 0 W/m
21.12.2014 06:00 4,4 C 2,5 C 7,4 C 88 % 1029,2 hPa 0,0 l/m 15,8 km/h (3 Bft) SW45 220 0 min 0 lux 0 W/m
21.12.2014 06:05 4,4 C 2,5 C 7,4 C 88 % 1029,2 hPa 0,0 l/m 19,8 km/h (3 Bft) SW45 230 0 min 0 lux 0 W/m
21.12.2014 06:10 4,4 C 2,5 C 7,4 C 88 % 1029,2 hPa 0,0 l/m 26,4 km/h (4 Bft) SW45 230 0 min 0 lux 0 W/m
21.12.2014 06:15 4,4 C 2,5 C 7,4 C 88 % 1029,2 hPa 0,0 l/m 22,6 km/h (4 Bft) SW67.5 230 0 min 0 lux 0 W/m
21.12.2014 06:20 4,4 C 2,5 C 7,4 C 88 % 1029,2 hPa 0,0 l/m 23,2 km/h (4 Bft) SW22.5 230 0 min 0 lux 0 W/m
21.12.2014 06:25 4,4 C 2,6 C 7,4 C 88 % 1029,2 hPa 0,0 l/m 22,0 km/h (4 Bft) W-SW45 240 0 min 0 lux 0 W/m
21.12.2014 06:30 4,4 C 2,6 C 7,4 C 88 % 1029,2 hPa 0,0 l/m 20,7 km/h (4 Bft) SW22.5 235 0 min 0 lux 0 W/m
21.12.2014 06:35 4,4 C 2,7 C 7,4 C 88 % 1029,2 hPa 0,0 l/m 22,0 km/h (4 Bft) SW45 230 0 min 0 lux 0 W/m
21.12.2014 06:40 4,4 C 2,9 C 7,4 C 88 % 1029,2 hPa 0,0 l/m 18,6 km/h (3 Bft) SW22.5 230 0 min 0 lux 0 W/m
21.12.2014 06:45 4,4 C 2,9 C 7,3 C 88 % 1029,2 hPa 0,0 l/m 21,8 km/h (4 Bft) SW45 235 0 min 0 lux 0 W/m
21.12.2014 06:50 4,4 C 2,8 C 7,3 C 88 % 1029,2 hPa 0,0 l/m 21,0 km/h (4 Bft) SW22.5 235 0 min 0 lux 0 W/m
21.12.2014 06:55 4,4 C 2,7 C 7,3 C 88 % 1029,2 hPa 0,0 l/m 22,0 km/h (4 Bft) W-SW45 240 0 min 0 lux 0 W/m
21.12.2014 07:00 4,4 C 2,6 C 7,3 C 88 % 1029,2 hPa 0,0 l/m 21,8 km/h (4 Bft) SW22.5 230 0 min 0 lux 0 W/m
21.12.2014 07:05 4,4 C 2,5 C 7,3 C 88 % 1029,2 hPa 0,0 l/m 19,8 km/h (3 Bft) SW45 220 0 min 0 lux 0 W/m
21.12.2014 07:10 4,4 C 2,5 C 7,3 C 88 % 1029,2 hPa 0,0 l/m 23,0 km/h (4 Bft) SW22.5 230 0 min 0 lux 0 W/m
21.12.2014 07:15 4,4 C 2,5 C 7,3 C 88 % 1029,2 hPa 0,0 l/m 23,3 km/h (4 Bft) SW22.5 235 0 min 0 lux 0 W/m
21.12.2014 07:20 4,4 C 2,6 C 7,3 C 88 % 1029,2 hPa 0,0 l/m 25,3 km/h (4 Bft) SW45 225 0 min 0 lux 0 W/m
21.12.2014 07:25 4,4 C 2,6 C 7,2 C 88 % 1029,2 hPa 0,0 l/m 22,1 km/h (4 Bft) SW45 225 0 min 0 lux 0 W/m
21.12.2014 07:30 4,4 C 2,6 C 7,2 C 88 % 1029,2 hPa 0,0 l/m 28,0 km/h (5 Bft) SW22.5 230 0 min 0 lux 0 W/m
21.12.2014 07:35 4,4 C 2,6 C 7,2 C 88 % 1029,2 hPa 0,0 l/m 25,3 km/h (4 Bft) SW22.5 230 0 min 0 lux 0 W/m
21.12.2014 07:40 4,4 C 2,7 C 7,2 C 88 % 1029,2 hPa 0,0 l/m 25,2 km/h (4 Bft) SW22.5 225 0 min 0 lux 0 W/m
21.12.2014 07:45 4,4 C 2,8 C 7,2 C 88 % 1029,2 hPa 0,0 l/m 22,6 km/h (4 Bft) SW45 230 0 min 0 lux 0 W/m
21.12.2014 07:50 4,4 C 3,2 C 7,2 C 88 % 1029,2 hPa 0,0 l/m 22,3 km/h (4 Bft) SW22.5 235 0 min 0 lux 0 W/m
21.12.2014 07:55 4,4 C 3,3 C 7,2 C 88 % 1029,2 hPa 0,0 l/m 22,5 km/h (4 Bft) SW22.5 230 0 min 0 lux 0 W/m
21.12.2014 08:00 4,4 C 3,4 C 7,2 C 88 % 1029,2 hPa 0,0 l/m 21,1 km/h (4 Bft) SW22.5 235 0 min 0 lux 0 W/m
21.12.2014 08:05 4,4 C 3,4 C 7,2 C 88 % 1029,2 hPa 0,0 l/m 19,3 km/h (3 Bft) SW45 225 0 min 0 lux 0 W/m
21.12.2014 08:10 4,4 C 3,4 C 7,2 C 88 % 1029,2 hPa 0,0 l/m 21,7 km/h (4 Bft) SW45 225 0 min 0 lux 0 W/m
21.12.2014 08:15 4,4 C 3,5 C 7,2 C 88 % 1029,2 hPa 0,0 l/m 24,9 km/h (4 Bft) SW45 225 0 min 0 lux 0 W/m
21.12.2014 08:20 4,4 C 3,4 C 7,2 C 88 % 1029,2 hPa 0,0 l/m 20,3 km/h (4 Bft) SW45 235 0 min 0 lux 0 W/m
21.12.2014 08:25 4,4 C 3,5 C 7,2 C 88 % 1029,2 hPa 0,0 l/m 20,2 km/h (4 Bft) SW45 220 0 min 0 lux 0 W/m
21.12.2014 08:30 4,4 C 3,6 C 7,2 C 88 % 1029,2 hPa 0,0 l/m 25,9 km/h (4 Bft) SW22.5 230 0 min 0 lux 0 W/m
21.12.2014 08:35 4,4 C 3,8 C 7,2 C 88 % 1029,2 hPa 0,0 l/m 24,1 km/h (4 Bft) SW45 220 0 min 0 lux 0 W/m
21.12.2014 08:40 4,5 C 3,8 C 7,2 C 89 % 1029,2 hPa 0,0 l/m 21,2 km/h (4 Bft) SW22.5 230 0 min 0 lux 0 W/m
21.12.2014 08:45 4,4 C 3,7 C 7,2 C 88 % 1029,2 hPa 0,0 l/m 21,2 km/h (4 Bft) SW22.5 230 0 min 0 lux 0 W/m
21.12.2014 08:50 4,4 C 3,3 C 7,2 C 88 % 1029,2 hPa 0,0 l/m 19,6 km/h (3 Bft) SW45 220 0 min 771 lux 5 W/m
21.12.2014 08:55 4,4 C 3,3 C 7,2 C 88 % 1029,2 hPa 0,0 l/m 19,6 km/h (3 Bft) SW45 220 0 min 861 lux 6 W/m
21.12.2014 09:00 4,4 C 3,3 C 7,2 C 88 % 1029,2 hPa 0,0 l/m 23,4 km/h (4 Bft) SW45 225 0 min 861 lux 6 W/m
21.12.2014 09:05 4,4 C 4,0 C 7,2 C 88 % 1029,2 hPa 0,0 l/m 20,6 km/h (4 Bft) SW45 220 0 min 861 lux 6 W/m
21.12.2014 09:10 4,4 C 3,9 C 7,2 C 88 % 1029,2 hPa 0,0 l/m 20,1 km/h (4 Bft) SW45 225 0 min 861 lux 6 W/m
21.12.2014 09:15 4,4 C 4,1 C 7,2 C 88 % 1029,2 hPa 0,0 l/m 21,1 km/h (4 Bft) SW45 220 0 min 861 lux 6 W/m
21.12.2014 09:20 4,4 C 4,3 C 7,2 C 88 % 1029,2 hPa 0,0 l/m 20,0 km/h (4 Bft) SW22.5 220 0 min 861 lux 6 W/m
21.12.2014 09:25 4,4 C 4,2 C 7,2 C 88 % 1029,2 hPa 0,0 l/m 16,9 km/h (3 Bft) SW45 220 0 min 3,90 klux 27 W/m
21.12.2014 09:30 4,7 C 4,0 C 7,2 C 88 % 1029,2 hPa 0,0 l/m 16,6 km/h (3 Bft) S-SW45 210 0 min 3,90 klux 27 W/m
21.12.2014 09:35 4,7 C 4,0 C 7,2 C 88 % 1029,2 hPa 0,0 l/m 21,6 km/h (4 Bft) SW22.5 220 0 min 3,90 klux 27 W/m
21.12.2014 09:40 4,7 C 4,1 C 7,2 C 88 % 1029,2 hPa 0,0 l/m 25,2 km/h (4 Bft) SW22.5 215 0 min 3,90 klux 27 W/m
21.12.2014 09:45 4,7 C 4,5 C 7,2 C 88 % 1029,2 hPa 0,0 l/m 21,1 km/h (4 Bft) SW45 220 0 min 3,90 klux 27 W/m
21.12.2014 09:50 4,7 C 4,6 C 7,2 C 88 % 1029,2 hPa 0,0 l/m 20,3 km/h (4 Bft) SW45 225 0 min 3,90 klux 27 W/m
21.12.2014 09:55 4,7 C 4,9 C 7,2 C 88 % 1029,2 hPa 0,0 l/m 20,5 km/h (4 Bft) SW45 220 0 min 3,90 klux 27 W/m
21.12.2014 10:00 4,9 C 5,2 C 7,2 C 88 % 1029,2 hPa 0,0 l/m 20,8 km/h (4 Bft) SW45 215 0 min 6,20 klux 42 W/m
21.12.2014 10:05 5,1 C 5,3 C 7,3 C 88 % 1029,2 hPa 0,0 l/m 14,9 km/h (3 Bft) SW45 225 0 min 6,20 klux 42 W/m
21.12.2014 10:10 5,2 C 5,2 C 7,2 C 88 % 1029,2 hPa 0,0 l/m 26,0 km/h (4 Bft) SW67.5 230 0 min 6,20 klux 42 W/m
21.12.2014 10:15 5,2 C 5,3 C 7,2 C 87 % 1029,2 hPa 0,0 l/m 24,3 km/h (4 Bft) W-SW22.5 240 0 min 6,20 klux 42 W/m
21.12.2014 10:20 5,4 C 5,6 C 7,3 C 87 % 1029,2 hPa 0,0 l/m 29,3 km/h (5 Bft) SW67.5 225 0 min 5,72 klux 39 W/m
21.12.2014 10:25 5,4 C 5,7 C 7,2 C 87 % 1029,2 hPa 0,0 l/m 26,8 km/h (4 Bft) SW45 235 0 min 5,72 klux 39 W/m
21.12.2014 10:30 5,5 C 5,7 C 7,2 C 86 % 1029,2 hPa 0,0 l/m 23,5 km/h (4 Bft) SW45 225 0 min 5,72 klux 39 W/m
21.12.2014 10:35 5,5 C 5,8 C 7,2 C 86 % 1029,2 hPa 0,0 l/m 21,2 km/h (4 Bft) SW22.5 230 0 min 5,17 klux 35 W/m
21.12.2014 10:40 5,6 C 5,8 C 7,2 C 86 % 1028,2 hPa 0,0 l/m 24,1 km/h (4 Bft) SW45 215 0 min 5,17 klux 35 W/m
21.12.2014 10:45 5,6 C 5,9 C 7,3 C 85 % 1029,2 hPa 0,0 l/m 26,6 km/h (4 Bft) SW45 235 0 min 4,01 klux 27 W/m
21.12.2014 10:50 5,8 C 5,9 C 7,3 C 85 % 1029,2 hPa 0,0 l/m 28,1 km/h (5 Bft) SW45 220 0 min 4,38 klux 30 W/m
21.12.2014 10:55 5,8 C 6,0 C 7,3 C 85 % 1029,2 hPa 0,0 l/m 25,0 km/h (4 Bft) SW22.5 230 0 min 4,38 klux 30 W/m
21.12.2014 11:00 5,8 C 6,0 C 7,3 C 85 % 1029,2 hPa 0,0 l/m 25,3 km/h (4 Bft) SW45 225 0 min 5,41 klux 37 W/m
21.12.2014 11:05 6,0 C 6,3 C 7,3 C 84 % 1029,2 hPa 0,0 l/m 25,5 km/h (4 Bft) SW67.5 220 0 min 5,41 klux 37 W/m
21.12.2014 11:10 6,0 C 6,3 C 7,3 C 84 % 1028,1 hPa 0,0 l/m 26,9 km/h (4 Bft) SW45 230 0 min 5,41 klux 37 W/m
21.12.2014 11:15 6,0 C 6,4 C 7,3 C 83 % 1028,1 hPa 0,0 l/m 26,5 km/h (4 Bft) SW22.5 225 0 min 5,41 klux 37 W/m
21.12.2014 11:20 6,0 C 6,5 C 7,3 C 83 % 1028,1 hPa 0,0 l/m 30,6 km/h (5 Bft) SW67.5 220 0 min 5,41 klux 37 W/m
21.12.2014 11:25 6,1 C 6,6 C 7,3 C 83 % 1028,1 hPa 0,0 l/m 31,6 km/h (5 Bft) SW67.5 220 0 min 5,41 klux 37 W/m
21.12.2014 11:30 6,1 C 6,7 C 7,3 C 83 % 1028,1 hPa 0,0 l/m 30,1 km/h (5 Bft) SW45 230 0 min 5,41 klux 37 W/m
21.12.2014 11:35 6,1 C 7,1 C 7,3 C 83 % 1028,1 hPa 0,0 l/m 31,8 km/h (5 Bft) SW45 225 0 min 10,0 klux 68 W/m
21.12.2014 11:40 6,2 C 7,3 C 7,3 C 82 % 1028,1 hPa 0,0 l/m 30,2 km/h (5 Bft) W-SW22.5 240 0 min 10,0 klux 68 W/m
21.12.2014 11:45 6,3 C 7,4 C 7,3 C 82 % 1028,1 hPa 0,0 l/m 23,0 km/h (4 Bft) SW45 215 0 min 9,9 klux 67 W/m
21.12.2014 11:49 6,3 C 8,1 C 7,3 C 82 % 1028,1 hPa 0,0 l/m 25,5 km/h (4 Bft) SW67.5 225 0 min 9,9 klux 67 W/m
21.12.2014 11:55 6,5 C 8,4 C 7,3 C 82 % 1028,1 hPa 0,0 l/m 24,3 km/h (4 Bft) SW22.5 230 0 min 10,4 klux 71 W/m
21.12.2014 12:00 6,5 C 8,3 C 7,3 C 82 % 1028,1 hPa 0,0 l/m 27,6 km/h (5 Bft) SW45 220 0 min 8,46 klux 58 W/m
21.12.2014 12:05 6,5 C 8,2 C 7,3 C 82 % 1028,1 hPa 0,0 l/m 28,2 km/h (5 Bft) SW45 215 0 min 8,46 klux 58 W/m
21.12.2014 12:10 6,6 C 7,8 C 7,4 C 82 % 1028,1 hPa 0,0 l/m 26,5 km/h (4 Bft) SW45 220 0 min 8,46 klux 58 W/m
21.12.2014 12:15 6,6 C 7,5 C 7,4 C 82 % 1028,1 hPa 0,0 l/m 30,2 km/h (5 Bft) SW67.5 225 0 min 5,91 klux 40 W/m
21.12.2014 12:20 6,6 C 7,5 C 7,4 C 82 % 1028,1 hPa 0,0 l/m 26,8 km/h (4 Bft) SW67.5 230 0 min 4,13 klux 28 W/m
21.12.2014 12:25 6,6 C 7,3 C 7,4 C 82 % 1028,1 hPa 0,0 l/m 25,2 km/h (4 Bft) SW45 220 0 min 4,53 klux 31 W/m
21.12.2014 12:30 6,6 C 7,3 C 7,4 C 83 % 1028,1 hPa 0,0 l/m 25,2 km/h (4 Bft) SW45 230 0 min 5,32 klux 36 W/m
21.12.2014 12:35 6,7 C 7,4 C 7,4 C 82 % 1028,1 hPa 0,0 l/m 26,9 km/h (4 Bft) SW45 225 0 min 6,58 klux 45 W/m
21.12.2014 12:40 6,8 C 7,7 C 7,4 C 83 % 1027,1 hPa 0,0 l/m 27,6 km/h (5 Bft) SW45 230 0 min 6,88 klux 47 W/m
21.12.2014 12:45 6,7 C 7,7 C 7,5 C 82 % 1027,1 hPa 0,0 l/m 26,2 km/h (4 Bft) SW45 220 0 min 4,95 klux 34 W/m
21.12.2014 12:50 6,8 C 7,8 C 7,5 C 82 % 1027,1 hPa 0,0 l/m 30,3 km/h (5 Bft) SW45 220 0 min 4,95 klux 34 W/m
21.12.2014 12:55 6,8 C 7,8 C 7,5 C 82 % 1027,1 hPa 0,0 l/m 32,9 km/h (5 Bft) SW45 225 0 min 5,86 klux 40 W/m
21.12.2014 13:00 6,9 C 7,8 C 7,5 C 82 % 1027,1 hPa 0,0 l/m 23,6 km/h (4 Bft) SW45 215 0 min 5,86 klux 40 W/m
21.12.2014 13:05 6,9 C 7,6 C 7,5 C 82 % 1027,1 hPa 0,0 l/m 31,0 km/h (5 Bft) SW67.5 215 0 min 4,64 klux 32 W/m
21.12.2014 13:10 6,9 C 7,6 C 7,5 C 82 % 1027,1 hPa 0,0 l/m 23,6 km/h (4 Bft) S-SW45 210 0 min 4,69 klux 32 W/m
21.12.2014 13:15 6,9 C 7,5 C 7,5 C 82 % 1027,1 hPa 0,0 l/m 26,0 km/h (4 Bft) SW67.5 220 0 min 4,07 klux 28 W/m
21.12.2014 13:20 7,0 C 7,4 C 7,5 C 82 % 1027,1 hPa 0,0 l/m 31,2 km/h (5 Bft) SW22.5 215 0 min 3,22 klux 22 W/m
21.12.2014 13:25 7,0 C 7,3 C 7,5 C 81 % 1027,1 hPa 0,0 l/m 28,6 km/h (5 Bft) SW22.5 220 0 min 3,18 klux 22 W/m
21.12.2014 13:30 6,9 C 7,3 C 7,5 C 82 % 1027,1 hPa 0,0 l/m 29,3 km/h (5 Bft) SW22.5 220 0 min 3,18 klux 22 W/m
21.12.2014 13:35 6,9 C 7,1 C 7,5 C 82 % 1027,1 hPa 0,0 l/m 26,6 km/h (4 Bft) SW45 225 0 min 3,18 klux 22 W/m
21.12.2014 13:40 6,9 C 6,9 C 7,5 C 82 % 1027,1 hPa 0,0 l/m 26,6 km/h (4 Bft) SW45 225 0 min 2,96 klux 20 W/m
21.12.2014 13:45 6,9 C 6,9 C 7,5 C 82 % 1027,1 hPa 0,0 l/m 32,4 km/h (5 Bft) SW45 220 0 min 3,21 klux 22 W/m
21.12.2014 13:50 6,9 C 7,0 C 7,6 C 82 % 1027,1 hPa 0,0 l/m 25,5 km/h (4 Bft) SW45 220 0 min 3,21 klux 22 W/m
21.12.2014 13:55 7,0 C 7,2 C 7,5 C 82 % 1026,1 hPa 0,0 l/m 24,9 km/h (4 Bft) SW45 225 0 min 3,21 klux 22 W/m
21.12.2014 14:00 7,0 C 7,2 C 7,6 C 82 % 1026,1 hPa 0,0 l/m 28,3 km/h (5 Bft) SW45 225 0 min 2,59 klux 18 W/m
21.12.2014 14:05 7,0 C 7,1 C 7,6 C 82 % 1027,1 hPa 0,0 l/m 31,6 km/h (5 Bft) SW67.5 225 0 min 1,25 klux 9 W/m
21.12.2014 14:10 7,0 C 7,0 C 7,6 C 81 % 1026,1 hPa 0,0 l/m 32,3 km/h (5 Bft) SW67.5 225 0 min 1,25 klux 9 W/m
21.12.2014 14:15 7,0 C 6,9 C 7,6 C 82 % 1026,1 hPa 0,0 l/m 38,1 km/h (6 Bft) SW67.5 235 0 min 1,25 klux 9 W/m
21.12.2014 14:20 6,9 C 7,0 C 7,6 C 82 % 1026,1 hPa 0,0 l/m 26,4 km/h (4 Bft) SW67.5 225 0 min 2,15 klux 15 W/m
21.12.2014 14:25 7,0 C 7,1 C 7,6 C 82 % 1026,1 hPa 0,0 l/m 25,6 km/h (4 Bft) SW45 215 0 min 2,15 klux 15 W/m
21.12.2014 14:30 7,0 C 7,0 C 7,6 C 82 % 1026,1 hPa 0,0 l/m 25,3 km/h (4 Bft) SW45 225 0 min 1,92 klux 13 W/m
21.12.2014 14:35 7,0 C 7,0 C 7,6 C 82 % 1026,1 hPa 0,0 l/m 31,8 km/h (5 Bft) SW45 220 0 min 1,82 klux 12 W/m
21.12.2014 14:40 7,2 C 7,1 C 7,6 C 82 % 1026,1 hPa 0,0 l/m 31,1 km/h (5 Bft) SW45 215 0 min 1,64 klux 11 W/m
21.12.2014 14:45 7,1 C 7,0 C 7,6 C 82 % 1026,1 hPa 0,0 l/m 29,1 km/h (5 Bft) SW67.5 225 0 min 1,64 klux 11 W/m
21.12.2014 14:50 7,2 C 7,0 C 7,6 C 82 % 1026,1 hPa 0,0 l/m 29,9 km/h (5 Bft) SW45 220 0 min 1,12 klux 8 W/m
21.12.2014 14:55 7,2 C 6,8 C 7,6 C 83 % 1026,1 hPa 0,0 l/m 31,2 km/h (5 Bft) SW45 225 0 min 1,24 klux 8 W/m
21.12.2014 15:00 7,0 C 6,7 C 7,6 C 84 % 1026,1 hPa 0,0 l/m 24,4 km/h (4 Bft) SW45 215 0 min 1,24 klux 8 W/m
21.12.2014 15:05 6,9 C 6,7 C 7,6 C 85 % 1026,1 hPa 0,0 l/m 25,3 km/h (4 Bft) SW45 225 0 min 1,24 klux 8 W/m
21.12.2014 15:10 6,9 C 6,7 C 7,6 C 86 % 1026,1 hPa 0,0 l/m 28,6 km/h (5 Bft) SW67.5 220 0 min 1,24 klux 8 W/m
21.12.2014 15:15 6,8 C 6,7 C 7,7 C 87 % 1026,1 hPa 0,0 l/m 28,9 km/h (5 Bft) SW45 235 0 min 1,24 klux 8 W/m
21.12.2014 15:20 6,8 C 6,7 C 7,7 C 87 % 1025,1 hPa 0,0 l/m 31,8 km/h (5 Bft) SW45 220 0 min 1,47 klux 10 W/m
21.12.2014 15:25 6,8 C 6,7 C 7,7 C 87 % 1025,1 hPa 0,0 l/m 31,8 km/h (5 Bft) SW45 220 0 min 1,47 klux 10 W/m
21.12.2014 15:30 6,8 C 6,7 C 7,7 C 87 % 1025,1 hPa 0,0 l/m 29,5 km/h (5 Bft) SW45 220 0 min 1,54 klux 11 W/m
21.12.2014 15:35 6,8 C 6,7 C 7,7 C 88 % 1025,1 hPa 0,0 l/m 27,8 km/h (5 Bft) SW45 225 0 min 1,54 klux 11 W/m
21.12.2014 15:40 6,8 C 6,7 C 7,7 C 88 % 1025,1 hPa 0,0 l/m 29,2 km/h (5 Bft) SW45 230 0 min 1,54 klux 11 W/m
21.12.2014 15:44 6,8 C 6,6 C 7,7 C 88 % 1025,1 hPa 0,0 l/m 28,4 km/h (5 Bft) SW67.5 230 0 min 678 lux 5 W/m
21.12.2014 15:50 6,8 C 6,6 C 7,7 C 89 % 1025,1 hPa 0,0 l/m 28,0 km/h (5 Bft) SW45 225 0 min 678 lux 5 W/m
21.12.2014 15:55 6,8 C 6,6 C 7,7 C 89 % 1025,1 hPa 0,0 l/m 26,1 km/h (4 Bft) SW45 215 0 min 678 lux 5 W/m
21.12.2014 16:00 6,8 C 6,5 C 7,7 C 89 % 1025,1 hPa 0,0 l/m 28,9 km/h (5 Bft) SW45 225 0 min 678 lux 5 W/m
21.12.2014 16:05 6,8 C 6,5 C 7,7 C 89 % 1025,1 hPa 0,0 l/m 33,9 km/h (5 Bft) SW45 225 0 min 165 lux 1 W/m
21.12.2014 16:09 6,8 C 6,5 C 7,7 C 89 % 1025,1 hPa 0,0 l/m 27,6 km/h (5 Bft) SW45 230 0 min 163 lux 1 W/m
21.12.2014 16:15 6,8 C 6,5 C 7,8 C 89 % 1025,1 hPa 0,0 l/m 27,4 km/h (5 Bft) SW45 215 0 min 163 lux 1 W/m
21.12.2014 16:20 6,8 C 6,6 C 7,7 C 89 % 1025,1 hPa 0,0 l/m 30,1 km/h (5 Bft) SW45 220 0 min 163 lux 1 W/m
21.12.2014 16:25 6,8 C 6,6 C 7,7 C 89 % 1025,1 hPa 0,0 l/m 24,3 km/h (4 Bft) SW67.5 220 0 min 30 lux 0 W/m
21.12.2014 16:30 6,8 C 6,6 C 7,7 C 89 % 1025,1 hPa 0,0 l/m 27,3 km/h (5 Bft) SW45 225 0 min 30 lux 0 W/m
21.12.2014 16:35 6,8 C 6,6 C 7,7 C 89 % 1025,1 hPa 0,0 l/m 25,0 km/h (4 Bft) SW45 220 0 min 26 lux 0 W/m
21.12.2014 16:40 6,8 C 6,6 C 7,7 C 89 % 1025,1 hPa 0,0 l/m 26,5 km/h (4 Bft) SW67.5 220 0 min 30 lux 0 W/m
21.12.2014 16:45 6,8 C 6,6 C 7,7 C 89 % 1025,1 hPa 0,0 l/m 26,5 km/h (4 Bft) SW67.5 220 0 min 30 lux 0 W/m
21.12.2014 16:50 6,8 C 6,6 C 7,7 C 89 % 1025,1 hPa 0,0 l/m 20,0 km/h (4 Bft) SW45 220 0 min 12 lux 0 W/m
21.12.2014 16:55 6,8 C 6,6 C 7,7 C 89 % 1024,1 hPa 0,4 l/m 31,7 km/h (5 Bft) SW67.5 225 0 min 0 lux 0 W/m
21.12.2014 17:00 6,8 C 6,6 C 7,8 C 89 % 1025,1 hPa 0,0 l/m 28,4 km/h (5 Bft) SW67.5 225 0 min 0 lux 0 W/m
21.12.2014 17:05 6,9 C 6,7 C 7,8 C 89 % 1025,1 hPa 0,0 l/m 32,5 km/h (5 Bft) SW45 230 0 min 0 lux 0 W/m
21.12.2014 17:10 6,9 C 6,7 C 7,8 C 89 % 1024,1 hPa 0,0 l/m 32,2 km/h (5 Bft) SW67.5 220 0 min 0 lux 0 W/m
21.12.2014 17:15 7,0 C 6,8 C 7,8 C 89 % 1024,1 hPa 0,0 l/m 32,1 km/h (5 Bft) SW45 230 0 min 0 lux 0 W/m
21.12.2014 17:20 7,0 C 6,8 C 7,8 C 89 % 1024,1 hPa 0,0 l/m 35,5 km/h (5 Bft) SW45 220 0 min 0 lux 0 W/m
21.12.2014 17:25 7,1 C 6,8 C 7,8 C 89 % 1024,1 hPa 0,0 l/m 37,0 km/h (5 Bft) W-SW45 240 0 min 0 lux 0 W/m
21.12.2014 17:30 7,0 C 6,8 C 7,8 C 89 % 1024,1 hPa 0,0 l/m 24,8 km/h (4 Bft) SW67.5 230 0 min 0 lux 0 W/m
21.12.2014 17:35 7,0 C 6,8 C 7,8 C 89 % 1024,1 hPa 0,0 l/m 28,1 km/h (5 Bft) SW45 225 0 min 0 lux 0 W/m
21.12.2014 17:40 7,0 C 6,8 C 7,8 C 89 % 1024,1 hPa 0,0 l/m 29,0 km/h (5 Bft) SW67.5 225 0 min 0 lux 0 W/m
21.12.2014 17:45 7,0 C 6,8 C 7,8 C 90 % 1024,1 hPa 0,0 l/m 37,1 km/h (5 Bft) SW45 225 0 min 0 lux 0 W/m
21.12.2014 17:50 7,0 C 6,8 C 7,8 C 90 % 1024,1 hPa 0,0 l/m 35,7 km/h (5 Bft) SW67.5 225 0 min 0 lux 0 W/m
21.12.2014 17:55 7,0 C 6,8 C 7,8 C 90 % 1024,1 hPa 0,0 l/m 33,7 km/h (5 Bft) SW45 235 0 min 0 lux 0 W/m
21.12.2014 18:00 7,0 C 6,8 C 7,8 C 90 % 1024,1 hPa 0,0 l/m 31,5 km/h (5 Bft) SW67.5 235 0 min 0 lux 0 W/m
21.12.2014 18:05 7,0 C 6,8 C 7,8 C 90 % 1024,1 hPa 0,0 l/m 31,5 km/h (5 Bft) SW67.5 235 0 min 0 lux 0 W/m
21.12.2014 18:10 7,0 C 6,8 C 7,8 C 90 % 1024,1 hPa 0,0 l/m 33,9 km/h (5 Bft) W-SW45 240 0 min 0 lux 0 W/m
21.12.2014 18:15 7,0 C 6,8 C 7,9 C 91 % 1024,1 hPa 0,0 l/m 26,1 km/h (4 Bft) SW45 230 0 min 0 lux 0 W/m
21.12.2014 18:20 7,0 C 6,8 C 7,9 C 91 % 1024,1 hPa 0,0 l/m 31,3 km/h (5 Bft) SW45 230 0 min 0 lux 0 W/m
21.12.2014 18:25 7,0 C 6,9 C 7,9 C 91 % 1024,1 hPa 0,0 l/m 30,2 km/h (5 Bft) SW22.5 230 0 min 0 lux 0 W/m
21.12.2014 18:30 7,0 C 6,9 C 7,9 C 91 % 1024,1 hPa 0,0 l/m 27,5 km/h (5 Bft) W-SW45 240 0 min 0 lux 0 W/m
21.12.2014 18:35 7,1 C 6,9 C 7,9 C 91 % 1024,1 hPa 0,0 l/m 31,3 km/h (5 Bft) SW45 230 0 min 0 lux 0 W/m
21.12.2014 18:41 7,1 C 6,9 C 7,9 C 91 % 1024,1 hPa 0,0 l/m 30,1 km/h (5 Bft) SW67.5 230 0 min 0 lux 0 W/m
21.12.2014 18:45 7,1 C 6,9 C 7,9 C 91 % 1024,1 hPa 0,0 l/m 27,6 km/h (5 Bft) SW67.5 225 0 min 0 lux 0 W/m
21.12.2014 18:50 7,0 C 6,9 C 7,9 C 91 % 1024,1 hPa 0,0 l/m 39,9 km/h (6 Bft) SW22.5 235 0 min 0 lux 0 W/m
21.12.2014 18:55 7,0 C 6,9 C 7,9 C 91 % 1024,1 hPa 0,0 l/m 29,6 km/h (5 Bft) SW45 225 0 min 0 lux 0 W/m
21.12.2014 19:00 7,1 C 7,0 C 7,9 C 91 % 1024,1 hPa 0,0 l/m 33,5 km/h (5 Bft) SW45 220 0 min 0 lux 0 W/m
21.12.2014 19:05 7,2 C 7,0 C 7,9 C 91 % 1024,1 hPa 0,0 l/m 28,5 km/h (5 Bft) SW45 230 0 min 0 lux 0 W/m
21.12.2014 19:10 7,2 C 7,0 C 7,9 C 91 % 1024,1 hPa 0,0 l/m 32,0 km/h (5 Bft) W-SW22.5 245 0 min 0 lux 0 W/m
21.12.2014 19:15 7,2 C 7,0 C 7,9 C 91 % 1024,1 hPa 0,0 l/m 31,8 km/h (5 Bft) SW67.5 220 0 min 0 lux 0 W/m
21.12.2014 19:20 7,2 C 7,0 C 7,9 C 91 % 1024,1 hPa 0,0 l/m 34,6 km/h (5 Bft) SW45 230 0 min 0 lux 0 W/m
21.12.2014 19:26 7,2 C 7,1 C 7,9 C 91 % 1024,1 hPa 0,0 l/m 34,6 km/h (5 Bft) SW45 230 0 min 0 lux 0 W/m
21.12.2014 19:30 7,2 C 7,1 C 8,0 C 91 % 1024,1 hPa 0,0 l/m 31,6 km/h (5 Bft) SW67.5 230 0 min 0 lux 0 W/m
21.12.2014 19:35 7,2 C 7,1 C 8,0 C 91 % 1024,1 hPa 0,0 l/m 39,9 km/h (6 Bft) SW67.5 235 0 min 0 lux 0 W/m
21.12.2014 19:40 7,2 C 7,1 C 7,9 C 91 % 1024,1 hPa 0,0 l/m 34,7 km/h (5 Bft) SW67.5 225 0 min 0 lux 0 W/m
21.12.2014 19:45 7,2 C 7,1 C 7,9 C 91 % 1024,1 hPa 0,0 l/m 37,0 km/h (5 Bft) SW67.5 215 0 min 0 lux 0 W/m
21.12.2014 19:50 7,2 C 7,1 C 8,0 C 91 % 1024,1 hPa 0,0 l/m 37,2 km/h (5 Bft) W-SW45 240 0 min 0 lux 0 W/m
21.12.2014 19:55 7,2 C 7,1 C 8,0 C 91 % 1024,1 hPa 0,0 l/m 39,8 km/h (6 Bft) SW45 225 0 min 0 lux 0 W/m
21.12.2014 20:00 7,3 C 7,1 C 8,0 C 90 % 1024,1 hPa 0,0 l/m 49,6 km/h (7 Bft) SW67.5 230 0 min 0 lux 0 W/m
21.12.2014 20:05 7,3 C 7,1 C 8,0 C 90 % 1024,1 hPa 0,0 l/m 45,9 km/h (6 Bft) W-SW67.5 240 0 min 0 lux 0 W/m
21.12.2014 20:10 7,3 C 7,1 C 8,0 C 90 % 1024,1 hPa 0,0 l/m 34,6 km/h (5 Bft) SW67.5 235 0 min 0 lux 0 W/m
21.12.2014 20:15 7,3 C 7,2 C 8,0 C 90 % 1024,1 hPa 0,0 l/m 39,7 km/h (6 Bft) SW67.5 225 0 min 0 lux 0 W/m
21.12.2014 20:20 7,3 C 7,2 C 8,0 C 90 % 1024,1 hPa 0,0 l/m 34,8 km/h (5 Bft) SW67.5 235 0 min 0 lux 0 W/m
21.12.2014 20:25 7,3 C 7,2 C 8,0 C 90 % 1024,1 hPa 0,0 l/m 37,8 km/h (5 Bft) SW67.5 235 0 min 0 lux 0 W/m
21.12.2014 20:30 7,3 C 7,2 C 8,1 C 90 % 1023,1 hPa 0,0 l/m 41,5 km/h (6 Bft) SW67.5 235 0 min 0 lux 0 W/m
21.12.2014 20:35 7,4 C 7,2 C 8,1 C 89 % 1023,1 hPa 0,0 l/m 39,4 km/h (6 Bft) SW45 230 0 min 0 lux 0 W/m
21.12.2014 20:40 7,4 C 7,2 C 8,1 C 89 % 1023,1 hPa 0,0 l/m 34,3 km/h (5 Bft) W-SW67.5 240 0 min 0 lux 0 W/m
21.12.2014 20:45 7,5 C 7,2 C 8,1 C 89 % 1023,1 hPa 0,0 l/m 39,7 km/h (6 Bft) SW45 235 0 min 0 lux 0 W/m
21.12.2014 20:50 7,5 C 7,2 C 8,1 C 88 % 1023,1 hPa 0,0 l/m 37,8 km/h (5 Bft) SW45 230 0 min 0 lux 0 W/m
21.12.2014 20:55 7,5 C 7,3 C 8,1 C 88 % 1023,1 hPa 0,0 l/m 42,5 km/h (6 Bft) SW67.5 235 0 min 0 lux 0 W/m
21.12.2014 21:00 7,5 C 7,3 C 8,1 C 88 % 1023,1 hPa 0,0 l/m 40,3 km/h (6 Bft) SW45 235 0 min 0 lux 0 W/m
21.12.2014 21:05 7,5 C 7,3 C 8,1 C 88 % 1023,1 hPa 0,0 l/m 40,9 km/h (6 Bft) SW45 230 0 min 0 lux 0 W/m
21.12.2014 21:10 7,5 C 7,3 C 8,1 C 88 % 1023,1 hPa 0,0 l/m 37,2 km/h (5 Bft) SW67.5 225 0 min 0 lux 0 W/m
21.12.2014 21:15 7,6 C 7,3 C 8,1 C 88 % 1023,1 hPa 0,0 l/m 47,3 km/h (6 Bft) SW67.5 230 0 min 0 lux 0 W/m
21.12.2014 21:20 7,6 C 7,3 C 8,1 C 88 % 1023,1 hPa 0,0 l/m 43,1 km/h (6 Bft) SW67.5 235 0 min 0 lux 0 W/m
21.12.2014 21:25 7,6 C 7,3 C 8,1 C 88 % 1023,1 hPa 0,0 l/m 37,1 km/h (5 Bft) W-SW67.5 240 0 min 0 lux 0 W/m
21.12.2014 21:30 7,6 C 7,3 C 8,1 C 88 % 1023,1 hPa 0,0 l/m 39,8 km/h (6 Bft) SW45 230 0 min 130 klux 0 W/m
21.12.2014 21:35 7,6 C 7,3 C 8,1 C 88 % 1023,1 hPa 0,0 l/m 43,0 km/h (6 Bft) SW67.5 235 0 min 0 lux 0 W/m
21.12.2014 21:40 7,6 C 7,3 C 8,1 C 88 % 1023,1 hPa 0,0 l/m 43,0 km/h (6 Bft) SW67.5 235 0 min 0 lux 0 W/m
21.12.2014 21:45 7,6 C 7,4 C 8,1 C 88 % 1023,1 hPa 0,0 l/m 38,9 km/h (6 Bft) W-SW67.5 245 0 min 0 lux 0 W/m
21.12.2014 21:50 7,6 C 7,4 C 8,1 C 88 % 1023,1 hPa 0,0 l/m 34,4 km/h (5 Bft) SW45 235 0 min 0 lux 0 W/m
21.12.2014 21:55 7,6 C 7,3 C 8,1 C 88 % 1023,1 hPa 0,0 l/m 35,1 km/h (5 Bft) SW45 235 0 min 0 lux 0 W/m
21.12.2014 22:00 7,6 C 7,3 C 8,1 C 88 % 1023,1 hPa 0,0 l/m 40,4 km/h (6 Bft) SW45 230 0 min 0 lux 0 W/m
21.12.2014 22:05 7,6 C 7,4 C 8,1 C 88 % 1023,1 hPa 0,0 l/m 36,4 km/h (5 Bft) SW67.5 230 0 min 0 lux 0 W/m
21.12.2014 22:10 7,6 C 7,6 C 8,1 C 88 % 1023,1 hPa 0,0 l/m 33,7 km/h (5 Bft) SW45 230 0 min 0 lux 0 W/m
21.12.2014 22:15 7,6 C 7,5 C 8,1 C 87 % 1023,1 hPa 0,0 l/m 41,6 km/h (6 Bft) SW67.5 230 0 min 0 lux 0 W/m
21.12.2014 22:20 7,6 C 7,5 C 8,1 C 87 % 1023,1 hPa 0,0 l/m 41,1 km/h (6 Bft) SW45 235 0 min 0 lux 0 W/m
21.12.2014 22:25 7,7 C 7,6 C 8,1 C 86 % 1023,1 hPa 0,0 l/m 39,5 km/h (6 Bft) SW45 230 0 min 0 lux 0 W/m
21.12.2014 22:30 7,8 C 7,7 C 8,1 C 85 % 1023,1 hPa 0,0 l/m 37,9 km/h (6 Bft) W-SW67.5 240 0 min 0 lux 0 W/m
21.12.2014 22:35 7,8 C 7,7 C 8,1 C 85 % 1023,1 hPa 0,0 l/m 37,5 km/h (5 Bft) SW22.5 230 0 min 0 lux 0 W/m
21.12.2014 22:40 7,9 C 7,8 C 8,1 C 84 % 1023,1 hPa 0,0 l/m 34,0 km/h (5 Bft) SW45 230 0 min 0 lux 0 W/m
21.12.2014 22:45 7,9 C 7,9 C 8,1 C 84 % 1023,1 hPa 0,0 l/m 43,5 km/h (6 Bft) SW67.5 230 0 min 0 lux 0 W/m
21.12.2014 22:50 8,0 C 7,8 C 8,1 C 84 % 1023,1 hPa 0,0 l/m 33,6 km/h (5 Bft) SW45 230 0 min 8,00 klux 0 W/m
21.12.2014 22:55 8,0 C 7,8 C 8,2 C 84 % 1023,1 hPa 0,0 l/m 38,7 km/h (6 Bft) SW67.5 230 0 min 0 lux 0 W/m
21.12.2014 23:00 8,0 C 7,8 C 8,2 C 83 % 1023,1 hPa 0,0 l/m 46,1 km/h (6 Bft) SW67.5 220 0 min 0 lux 0 W/m
21.12.2014 23:05 8,0 C 7,9 C 8,2 C 83 % 1023,1 hPa 0,0 l/m 42,9 km/h (6 Bft) SW67.5 215 0 min 0 lux 0 W/m
21.12.2014 23:10 8,0 C 7,9 C 8,2 C 83 % 1023,1 hPa 0,0 l/m 49,3 km/h (7 Bft) W-SW67.5 240 0 min 0 lux 0 W/m
21.12.2014 23:15 8,0 C 7,9 C 8,2 C 83 % 1023,1 hPa 0,0 l/m 40,0 km/h (6 Bft) SW45 230 0 min 0 lux 0 W/m
21.12.2014 23:20 8,1 C 8,0 C 8,2 C 83 % 1023,1 hPa 0,0 l/m 38,4 km/h (6 Bft) SW67.5 230 0 min 0 lux 0 W/m
21.12.2014 23:25 8,1 C 8,0 C 8,2 C 83 % 1023,1 hPa 0,0 l/m 37,7 km/h (5 Bft) SW45 235 0 min 0 lux 0 W/m
21.12.2014 23:30 8,1 C 8,0 C 8,2 C 83 % 1023,1 hPa 0,0 l/m 42,4 km/h (6 Bft) W-SW45 250 0 min 0 lux 0 W/m
21.12.2014 23:35 8,1 C 8,1 C 8,2 C 82 % 1023,1 hPa 0,0 l/m 40,2 km/h (6 Bft) SW45 225 0 min 0 lux 0 W/m
21.12.2014 23:40 8,1 C 8,1 C 8,2 C 82 % 1023,1 hPa 0,0 l/m 35,7 km/h (5 Bft) SW67.5 230 0 min 0 lux 0 W/m
21.12.2014 23:45 8,1 C 8,0 C 8,2 C 82 % 1023,1 hPa 0,0 l/m 42,0 km/h (6 Bft) SW67.5 235 0 min 0 lux 0 W/m
21.12.2014 23:50 8,1 C 8,0 C 8,2 C 82 % 1023,1 hPa 0,0 l/m 38,1 km/h (6 Bft) W-SW67.5 240 0 min 0 lux 0 W/m
21.12.2014 23:55 8,1 C 8,1 C 8,2 C 82 % 1023,1 hPa 0,0 l/m 37,8 km/h (5 Bft) SW22.5 230 0 min 0 lux 0 W/m
_ Min-Zeit 00:00 00:05 07:25 13:25 23:20 - 10:05 - - - - -
Minimum _ 4,3 C 2,1 C 7,2 C 81 % 1023,1 hPa - 14,9 km/h (3 Bft) - - - - -
_ Max-Zeit 23:20 11:55 22:55 18:15 05:40 16:55 20:00 - - 00:00 21:30 11:55
Maximum _ 8,1 C 8,4 C 8,2 C 91 % 1029,2 hPa 0,4 l/m 49,6 km/h
SW (7 Bft)
- - 0 min 130 klux 71 W/m
Durchschnitt _ 6,0 C 5,4 C 7,6 C 87 % 1026,7 hPa #0,4 l/m 28,0 km/h (5 Bft) SW - #0 min. 1,66 klux 26 W/m